Regional Weather Roundup
Issued by NWS

Home | Current Version | Previous Version | Text Only | Print | Product List | Glossary On
Versions: 1 2 3 4 5 6 7 8 9 10 11 12 13 14 15 16 17 18 19 20 21 22 23 24 25 26 27 28 29 30 31 32 33 34 35 36 37 38 39 40 41 42 43 44 45 46 47 48 49 50
000
ASUS43 KMPX 061101
RWRMN
WEATHER ROUNDUP FOR MINNESOTA
NATIONAL WEATHER SERVICE TWIN CITIES/CHANHASSEN MN
500 AM CST FRI MAR 06 2015


NOTE: "FAIR" INDICATES FEW OR NO CLOUDS BELOW 12,000 FEET WITH NO
SIGNIFICANT WEATHER AND/OR OBSTRUCTIONS TO VISIBILITY. N/A MEANS
CURRENT SKY AND/OR WEATHER CONDITIONS ARE NOT AVAILABLE.

MNZ060>063-068>070-061200-
   Twin Cities Metro

CITY           SKY/WX    TMP DP  RH WIND       PRES   REMARKS
TWIN CITIES    MOCLDY     9   0  67 SE7       30.12F WCI  -2
ST PAUL        CLEAR     11   2  67 SE8       30.14F WCI  -1
CRYSTAL        CLEAR     12   1  61 S8        30.09F WCI   0
BLAINE         PTCLDY    12   3  67 S9        30.09F WCI   0
LAKEVILLE      CLEAR      7   0  72 S8        30.12F WCI  -6
EDEN PRAIRIE   CLEAR     13   3  64 S10       30.10F WCI   0
SOUTH ST PAUL  CLEAR     12   2  64 S6        30.13F WCI   2
LAKE ELMO      FAIR      12   3  67 S9        30.13F WCI   0
$$
MNZ001>005-007-008-013>017-022>024-027-028-061200-
   Northwest Minnesota

CITY           SKY/WX    TMP DP  RH WIND       PRES   REMARKS
BEMIDJI        CLEAR     12   4  71 SW5       29.91S WCI   4
HALLOCK        CLEAR     10   5  79 W3        29.96R
ROSEAU         CLEAR     14   9  79 W9        29.92R WCI   2
WARROAD        CLEAR     12   9  85 SW7       29.91R WCI   2
THIEF RVR FALL CLEAR     12   9  85 NW9       29.95R WCI   0
CROOKSTON      CLEAR      7   3  85 NW6       29.98R WCI  -3
FOSSTON        CLEAR      7   1  78 SW5       29.95R WCI  -2
DETROIT LAKES  CLEAR     16  10  79 SW5       29.96R WCI   9
MOORHEAD       CLEAR     10   9  92 SW7       30.00R WCI   0
PARK RAPIDS    CLEAR      8   1  73 SW5       29.92F WCI   0
MAHNOMEN       FAIR      11   6  81 SW6       29.94S WCI   1
$$
MNZ006-009>011-018-025>026-061200-
   North Central Minnesota

CITY           SKY/WX    TMP DP  RH WIND       PRES   REMARKS
BAUDETTE       CLEAR     13   7  77 W9        29.87R WCI   1
FLAG ISLAND    CLEAR     10   7  85 NW12      29.87R WCI  -4
INTL FALLS     CLEAR      8   1  73 SW7       29.86F WCI  -3
WASKISH        FAIR      12   9  85 SW13      29.91R WCI  -3
BIG FORK       CLEAR     10   1  67 SW7       29.90S WCI   0
LONGVILLE      CLOUDY    12   5  73 S5        29.94S WCI   4
GRAND RAPIDS   CLOUDY    10   3  72 S6        29.92S WCI   1
CRANE LAKE     CLOUDY     9   1  72 S3        29.91S
ORR            PTCLDY     9   0  66 S5        29.86F WCI   0
COOK           CLOUDY     9   1  72 S5        29.90F WCI   0
WALKER         FAIR      13   4  67 SW8       29.92R WCI   2
$$
MNZ012-019>021-037-061200-
   Northeast Minnesota

CITY           SKY/WX    TMP DP  RH WIND       PRES   REMARKS
DULUTH         CLOUDY    11   2  67 SW17G30   29.95F WCI  -6
ELY            CLOUDY    10   1  67 SW12      29.89F WCI  -4
HIBBING        CLOUDY    10   1  67 VRB3      29.92F
EVELETH        PTCLDY    12   5  73 SW10      29.94S WCI  -1
DULUTH HARBOR  CLOUDY    10   3  72 SW14G21   30.04F WCI  -5
TWO HARBORS    CLOUDY    10   1  67 SW9       29.96F WCI  -2
SILVER BAY     CLOUDY    10   1  67 SW7       29.95F WCI   0
GRAND MARAIS     N/A     17  10  74 W14G26    29.98F WCI   3
G MARAIS ARPRT CLOUDY     9   0  66 S13G23    29.88F WCI  -7
$$
MNZ029>031-032-039>041-046>048-054>057-064-061200-
   West Central Minnesota

CITY           SKY/WX    TMP DP  RH WIND       PRES   REMARKS
FERGUS FALLS   CLEAR     12   5  73 SW5       30.03S WCI   4
WHEATON        CLEAR     12   7  79 CALM      30.03R
MORRIS         PTCLDY    10   5  79 S9        30.00S WCI  -2
ALEXANDRIA     CLOUDY    16   8  71 SW10      29.98F WCI   4
ELBOW LAKE     FAIR      13   7  78 S8        29.99S WCI   1
WADENA         CLEAR     12   7  79 SW5       29.95S WCI   4
GLENWOOD       CLOUDY    16   9  73 S10       30.00F WCI   3
APPLETON       PTCLDY    12   7  79 SW6       30.02F WCI   3
BENSON         CLOUDY    14   7  73 S3        30.02F
ORTONVILLE     CLEAR     19   9  63 SW6       30.01F WCI  11
MADISON        CLEAR     21  10  63 SW7       30.03F WCI  13
WILLMAR        FAIR      16   9  73 SE3       30.05S
$$
MNZ033>034-036-042>043-049>051-058-059-061200-
   Central Minnesota

CITY           SKY/WX    TMP DP  RH WIND       PRES   REMARKS
ST CLOUD       CLOUDY    13   5  70 S9        30.04F WCI   1
SAUK CENTRE    CLOUDY    13   8  79 S7        30.01F WCI   3
PAYNESVILLE    CLOUDY    12   6  77 SE7       30.04F WCI   1
AITKIN         CLOUDY    18   7  62 S8        29.96F WCI   7
PINE RIVER     CLOUDY    12   7  79 SE5       29.98F WCI   4
BRAINERD       CLOUDY    13   5  70 SW10      29.98F WCI   0
STAPLES        MOCLDY    10   5  79 S5        29.96F WCI   2
LONG PRAIRIE   CLOUDY    14   9  79 S12       29.99F WCI   0
LITTLE FALLS   MOCLDY    14   7  73 S5        30.02F WCI   6
LITCHFIELD     CLOUDY    14   7  73 CALM      30.06S
BUFFALO        CLOUDY    13   4  68 S8        30.08F WCI   2
MAPLE LAKE     CLOUDY    15   8  74 S8        30.07S WCI   3
$$
MNZ037-044-045-052-053-061200-
   East Central Minnesota

CITY           SKY/WX    TMP DP  RH WIND       PRES   REMARKS
PRINCETON      CLOUDY    16   5  62 S9        30.05F WCI   4
MORA           MOCLDY     9   3  78 S5        30.06F WCI   0
CAMBRIDGE      CLOUDY    12   3  67 S9        30.05F WCI   0
RUSH CITY      CLOUDY    10   2  72 S8        30.07F WCI  -3
MOOSE LAKE     CLOUDY     9   1  72 CALM      30.01F
HINCKLEY       CLOUDY    10   3  72 S7        30.06S WCI   0
CLOQUET        CLOUDY     9   1  72 SW15G23   29.97F WCI  -8
MCGREGOR       CLOUDY    14   7  73 S8        29.98F WCI   3
$$
MNZ071>073-080-081-089-090-097-098-061200-
   Southwest Minnesota

CITY           SKY/WX    TMP DP  RH WIND       PRES   REMARKS
MONTEVIDEO     PTCLDY    16  10  79 W5        30.05R WCI   9
GRANITE FALLS  PTCLDY    18  11  75 S6        30.06S WCI   9
CANBY          PTCLDY    24  12  61 SW12      30.04F WCI  13
MARSHALL       PTCLDY    21   9  58 W21       30.05S WCI   6
REDWOOD FALLS  MOCLDY    18  10  71 SW6       30.06F WCI  10
OLIVIA         MOCLDY    14   9  79 S6        30.05S WCI   5
PIPESTONE      FAIR      18  10  73 SW5       30.06S WCI  11
WINDOM         PTCLDY    18   9  68 SW13      30.07S WCI   4
WORTHINGTON    MOCLDY    19   9  63 SW15      30.09S WCI   5
JACKSON        CLEAR     18   9  68 S12       30.08F WCI   5
TRACY          MOCLDY    22  12  65 SW20      30.04S WCI   6
SLAYTON        MOCLDY    19   9  65 SW17      30.06R WCI   3
$$
MNZ065>067-074>077-082>085-091>093-061200-
   South Central Minnesota

CITY           SKY/WX    TMP DP  RH WIND       PRES   REMARKS
MANKATO        CLEAR     12   3  67 S8        30.11F WCI   1
NEW ULM        PTCLDY    12   7  79 S9        30.08F WCI   0
ST JAMES       PTCLDY    16   9  73 S13       30.10F WCI   2
FAIRMONT       CLEAR     16   7  67 S15G22    30.09F WCI   1
GLENCOE        CLEAR     14   8  76 S9        30.08F WCI   2
FARIBAULT      CLEAR      7   0  72 S9        30.12F WCI  -7
OWATONNA       CLEAR      9   0  66 S15       30.12F WCI  -8
WASECA         CLEAR     12   5  73 S14       30.14F WCI  -3
ALBERT LEA     CLEAR      9   1  72 S9        30.14S WCI  -5
$$
MNZ078>079-086>088-094>096-061200-
   Southeast Minnesota

CITY           SKY/WX    TMP DP  RH WIND       PRES   REMARKS
ROCHESTER      CLEAR      7  -2  66 S20       30.14F WCI -13
RED WING       CLEAR      9   0  66 SE3       30.16F
STANTON        CLEAR     12   2  64 S13       30.12F WCI  -3
DODGE CENTER   PTCLDY     9   1  72 S18       30.12S WCI -10
WINONA         CLOUDY    12   3  67 S8        30.24F WCI   1
AUSTIN         CLEAR      7   0  72 S12       30.15F WCI  -9
PRESTON        MOCLDY     6  -2  71 S17       30.17F WCI -13
$$
ABBREVIATIONS USED IN REMARKS
   TC - TEMPERATURES IN CELSIUS
  WCI - WIND CHILL INDEX
   HX - HEAT INDEX
  VSB - VISIBILITY
$$


USA.gov is the U.S. government's official web portal to all federal, state and local government web resources and services.